This is the latest recevied weather packets stored in our database for station/object AE5HO. If no packets are shown the sender has not sent any weather packets the latest 10 day(s).
| Time | Temp. | Humidity | Pressure | Rain* | Wind** | Luminosity | Snow |
|---|---|---|---|---|---|---|---|
| 1777220295 | 25° C | 83% | 1009.2 hPa | 0 mm | - | 45 W/m² | - |
| 1777219989 | 25.56° C | 83% | 1009.3 hPa | 0 mm | - | 33 W/m² | - |
| 1777219687 | 25.56° C | 83% | 1009.3 hPa | 0 mm | - | 53 W/m² | - |
| 1777219384 | 25° C | 83% | 1009.2 hPa | 0 mm | - | 55 W/m² | - |
| 1777219080 | 25° C | 83% | 1009 hPa | 0 mm | - | 42 W/m² | - |
| 1777218776 | 25° C | 83% | 1009 hPa | 0 mm | - | 33 W/m² | - |
| 1777218471 | 25° C | 82% | 1008.9 hPa | 0 mm | - | 43 W/m² | - |
| 1777218167 | 25° C | 82% | 1008.8 hPa | 0 mm | - | 46 W/m² | - |
| 1777217864 | 25° C | 83% | 1008.9 hPa | 0 mm | - | 39 W/m² | - |
| 1777217558 | 25° C | 83% | 1008.9 hPa | 0 mm | - | 82 W/m² | - |
| 1777217256 | 25° C | 83% | 1008.6 hPa | 0 mm | - | 81 W/m² | - |
| 1777216952 | 25° C | 84% | 1008.9 hPa | 0 mm | - | 91 W/m² | - |
| 1777216649 | 24.44° C | 86% | 1009.3 hPa | 0 mm | - | 99 W/m² | - |
| 1777216345 | 24.44° C | 86% | 1009 hPa | 0 mm | - | 83 W/m² | - |
| 1777216044 | 24.44° C | 86% | 1009 hPa | 0 mm | - | 54 W/m² | - |
| 1777215739 | 24.44° C | 86% | 1009.3 hPa | 0 mm | - | 57 W/m² | - |
| 1777215435 | 24.44° C | 86% | 1009 hPa | 0 mm | - | 64 W/m² | - |
| 1777215132 | 24.44° C | 86% | 1009 hPa | 0 mm | - | 72 W/m² | - |
| 1777214827 | 23.89° C | 86% | 1009.1 hPa | 0 mm | - | 54 W/m² | - |
| 1777214526 | 24.44° C | 86% | 1009.2 hPa | 0 mm | - | 46 W/m² | - |
| 1777214221 | 23.89° C | 87% | 1009.1 hPa | 0 mm | - | 65 W/m² | - |
| 1777213920 | 23.89° C | 88% | 1009.1 hPa | 0 mm | - | 50 W/m² | - |
| 1777213615 | 23.89° C | 88% | 1009.2 hPa | 0 mm | - | 42 W/m² | - |
| 1777213312 | 23.89° C | 89% | 1009.1 hPa | 0 mm | - | 43 W/m² | - |
| 1777213008 | 23.33° C | 90% | 1009.3 hPa | 0 mm | - | 44 W/m² | - |
* Rain latest hour (hover to see other rain measurements)
** Current wind speed in m/s (hover to see current wind gust speed)